Data for 06/29/2017

Time Sea-Level Adjusted Pressure Absolute Pressure Temperature Relative Humidity Dew Point   
(mb) (inHg) (mb) (inHg) (C) (F) (%) (C) (F)
00:05 1018 30.06 848 25.04 9.2 48.5 89 7.4 45.4
00:10 1018 30.06 847 25.01 9.2 48.5 87 7.2 45
00:15 1018 30.06 847 25.01 9.3 48.7 85 7 44.5
00:20 1018 30.06 847 25.01 9.4 48.9 83 6.6 43.9
00:25 1019 30.09 848 25.04 9.7 49.4 78 6.1 42.9
00:30 1019 30.09 848 25.04 9.8 49.7 78 6.2 43.1
00:35 1019 30.09 848 25.04 9.8 49.6 77 6 42.8
00:40 1018 30.06 848 25.04 9.6 49.3 80 6.3 43.4
00:45 1018 30.06 847 25.01 9.6 49.2 77 5.8 42.4
00:50 1018 30.06 847 25.01 9.5 49.1 79 6.1 43
00:55 1018 30.06 847 25.01 9.4 48.9 79 5.9 42.7
01:00 1018 30.06 847 25.01 9.3 48.8 79 5.8 42.5
01:05 1018 30.06 847 25.01 9.2 48.6 79 5.7 42.3
01:10 1018 30.06 847 25.01 9.3 48.7 76 5.2 41.3
01:15 1018 30.06 847 25.01 9.2 48.5 77 5.3 41.6
01:20 1018 30.06 847 25.01 9 48.1 75 4.8 40.6
01:25 1018 30.06 847 25.01 8.9 48.1 74 4.5 40.1
01:30 1018 30.06 847 25.01 8.8 47.9 74 4.4 40
01:35 1018 30.06 847 25.01 8.8 47.8 75 4.5 40.2
01:40 1018 30.06 847 25.01 8.6 47.5 76 4.6 40.3
01:45 1018 30.06 847 25.01 8.5 47.3 76 4.6 40.2
01:50 1018 30.06 847 25.01 8.4 47.1 76 4.3 39.8
01:55 1018 30.06 847 25.01 8.4 47.2 75 4.2 39.6
02:00 1018 30.06 847 25.01 8.4 47.2 75 4.3 39.7
02:05 1018 30.06 847 25.01 8.4 47.1 76 4.4 39.8
02:10 1018 30.06 847 25.01 8.4 47 76 4.3 39.7
02:15 1018 30.06 847 25.01 8.3 47 77 4.5 40.1
02:20 1018 30.06 847 25.01 8.3 46.9 77 4.5 40.1
02:25 1018 30.06 847 25.01 8.3 46.9 77 4.5 40.1
02:30 1018 30.06 847 25.01 8.4 47.1 76 4.4 39.9
02:35 1018 30.06 847 25.01 8.5 47.2 76 4.4 39.9
02:40 1018 30.06 847 25.01 8.6 47.4 75 4.4 40
02:45 1018 30.06 847 25.01 8.5 47.4 76 4.6 40.2
02:50 1018 30.06 847 25.01 8.5 47.2 77 4.6 40.3
02:55 1018 30.06 847 25.01 8.3 46.9 77 4.6 40.3
03:00 1018 30.06 847 25.01 8.2 46.8 77 4.5 40.2
03:05 1018 30.06 847 25.01 8.3 46.9 78 4.7 40.4
03:10 1018 30.06 847 25.01 8.2 46.8 78 4.6 40.2
03:15 1018 30.06 847 25.01 8.2 46.8 77 4.5 40.1
03:20 1018 30.06 847 25.01 8.3 47 76 4.4 39.9
03:25 1018 30.06 848 25.04 8.4 47.1 77 4.6 40.3
03:30 1018 30.06 848 25.04 8.4 47.1 77 4.5 40.2
03:35 1018 30.06 848 25.04 8.4 47.2 76 4.5 40.1
03:40 1018 30.06 848 25.04 8.4 47.1 77 4.5 40.1
03:45 1019 30.09 848 25.04 8.3 47 77 4.6 40.3
03:50 1018 30.06 848 25.04 8.3 47 77 4.5 40.2
03:55 1019 30.09 848 25.04 8.3 47 77 4.5 40.2
04:00 1019 30.09 848 25.04 8.3 46.9 76 4.4 39.9
04:05 1019 30.09 848 25.04 8.4 47 76 4.5 40
04:10 1019 30.09 848 25.04 8.2 46.8 78 4.6 40.3
04:15 1019 30.09 848 25.04 8 46.3 78 4.4 39.9
04:20 1019 30.09 848 25.04 7.9 46.2 79 4.5 40.1
04:25 1019 30.09 848 25.04 7.8 46 77 4 39.3
04:30 1019 30.09 848 25.04 8 46.4 78 4.3 39.8
04:35 1019 30.09 848 25.04 7.8 46 79 4.4 39.8
04:40 1019 30.09 848 25.04 7.6 45.6 80 4.3 39.8
04:45 1019 30.09 848 25.04 7.5 45.5 80 4.2 39.6
04:50 1019 30.09 848 25.04 7.6 45.7 78 4.1 39.3
04:55 1019 30.09 848 25.04 7.7 45.9 78 4.2 39.5
05:00 1019 30.09 848 25.04 7.7 45.9 78 4.1 39.3
05:05 1019 30.09 848 25.04 7.9 46.3 75 3.8 38.9
05:10 1019 30.09 848 25.04 8.1 46.6 76 4.1 39.3
05:15 1019 30.09 848 25.04 8.2 46.7 76 4.1 39.4
05:20 1019 30.09 848 25.04 8.1 46.6 77 4.4 39.9
05:25 1019 30.09 848 25.04 7.8 46.1 78 4.3 39.7
05:30 1019 30.09 848 25.04 8 46.4 76 4.1 39.4
05:35 1019 30.09 848 25.04 8 46.5 77 4.2 39.5
05:40 1019 30.09 848 25.04 8.2 46.7 76 4.2 39.5
05:45 1019 30.09 848 25.04 8.3 47 75 4.1 39.4
05:50 1019 30.09 848 25.04 8.6 47.4 74 4.2 39.6
05:55 1019 30.09 848 25.04 8.8 47.8 74 4.5 40.1
06:00 1019 30.09 848 25.04 8.7 47.6 76 4.7 40.4
06:05 1019 30.09 848 25.04 8.7 47.6 76 4.7 40.5
06:10 1019 30.09 848 25.04 8.8 47.9 76 4.8 40.6
06:15 1019 30.09 849 25.07 9 48.1 76 5 40.9
06:20 1019 30.09 849 25.07 9.3 48.7 75 5 41
06:25 1020 30.12 849 25.07 9.8 49.6 71 4.9 40.8
06:30 1020 30.12 849 25.07 10 50 72 5.2 41.4
06:35 1020 30.12 849 25.07 10.1 50.1 72 5.3 41.5
06:40 1020 30.12 849 25.07 10 50 72 5.3 41.5
06:45 1020 30.12 849 25.07 10.4 50.6 69 4.9 40.9
06:50 1020 30.12 849 25.07 10.7 51.2 68 5.1 41.1
06:55 1020 30.12 849 25.07 10.8 51.5 66 4.9 40.7
07:00 1020 30.12 849 25.07 11 51.8 66 5 40.9
07:05 1020 30.12 849 25.07 11.7 53 63 4.9 40.8
07:10 1020 30.12 849 25.07 11.7 53.1 66 5.5 41.9
07:15 1020 30.12 849 25.07 11.7 53 64 5.1 41.3
07:20 1020 30.12 849 25.07 11.8 53.2 64 5.3 41.5
07:25 1020 30.12 849 25.07 12.4 54.3 61 5.1 41.1
07:30 1020 30.12 849 25.07 13.3 56 59 5.6 42.1
07:35 1020 30.12 850 25.1 13.7 56.7 57 5.4 41.7
07:40 1020 30.12 850 25.1 14.1 57.4 55 5.4 41.6
07:45 1020 30.12 850 25.1 13.4 56.2 59 5.7 42.2
07:50 1020 30.12 850 25.1 12.6 54.6 64 5.9 42.7
07:55 1021 30.15 850 25.1 13.2 55.7 59 5.4 41.8
08:00 1021 30.15 850 25.1 12.9 55.3 63 6.2 43.1
08:05 1021 30.15 850 25.1 12.4 54.4 66 6.3 43.4
08:10 1021 30.15 850 25.1 12.4 54.2 66 6.2 43.1
08:15 1021 30.15 850 25.1 12.2 53.9 68 6.5 43.6
08:20 1021 30.15 850 25.1 11.6 52.9 70 6.3 43.4
08:25 1021 30.15 850 25.1 11.4 52.5 69 5.9 42.6
08:30 1021 30.15 850 25.1 11.7 53.1 68 6.1 42.9
08:35 1021 30.15 850 25.1 12.1 53.8 65 5.8 42.5
08:40 1021 30.15 850 25.1 12.7 54.9 58 4.8 40.7
08:45 1021 30.15 850 25.1 14.1 57.3 53 4.8 40.7
08:50 1021 30.15 850 25.1 14.5 58.2 54 5.4 41.7
08:55 1021 30.15 850 25.1 14.7 58.4 52 5 41.1
09:00 1021 30.15 850 25.1 14.7 58.4 55 5.7 42.3
09:05 1021 30.15 850 25.1 14.5 58.1 52 4.7 40.5
09:10 1021 30.15 850 25.1 15.6 60.2 48 4.6 40.4
09:15 1021 30.15 850 25.1 15.6 60.1 49 5.1 41.1
09:20 1021 30.15 850 25.1 16 60.7 47 4.6 40.4
09:25 1021 30.15 850 25.1 16 60.8 49 5.4 41.7
09:30 1021 30.15 850 25.1 15.4 59.7 53 6 42.8
09:35 1021 30.15 850 25.1 14.8 58.7 57 6.4 43.5
09:40 1021 30.15 850 25.1 14.3 57.8 57 6 42.8
09:45 1021 30.15 850 25.1 14.3 57.7 58 6.3 43.4
09:50 1021 30.15 850 25.1 14 57.2 58 5.9 42.6
09:55 1021 30.15 850 25.1 14.4 57.9 55 5.5 42
10:00 1021 30.15 850 25.1 14.9 58.9 55 6.1 43
10:05 1021 30.15 850 25.1 15.1 59.2 54 5.9 42.6
10:10 1021 30.15 850 25.1 15.5 60 51 5.6 42
10:15 1021 30.15 850 25.1 15.5 60 53 6 42.9
10:20 1021 30.15 850 25.1 15.9 60.6 51 5.9 42.5
10:25 1021 30.15 850 25.1 15.6 60.1 53 6.2 43.1
10:30 1021 30.15 851 25.13 15.7 60.3 51 5.7 42.2
10:35 1021 30.15 851 25.13 16.7 62 49 6.2 43.1
10:40 1021 30.15 850 25.1 16.4 61.5 50 6.1 43
10:45 1021 30.15 850 25.1 16.3 61.3 51 6.1 43
10:50 1021 30.15 850 25.1 17.4 63.4 49 6.6 44
10:55 1021 30.15 850 25.1 16.8 62.3 49 6.2 43.2
11:00 1021 30.15 850 25.1 17 62.6 49 6.2 43.1
11:05 1021 30.15 850 25.1 17 62.7 47 5.9 42.5
11:10 1021 30.15 851 25.13 17.1 62.7 47 5.9 42.6
11:15 1022 30.18 851 25.13 17.7 63.8 42 4.8 40.6
11:20 1022 30.18 851 25.13 17.2 63 45 5.5 41.9
11:25 1022 30.18 851 25.13 17.4 63.3 46 5.9 42.7
11:30 1021 30.15 851 25.13 17.7 63.8 45 5.8 42.4
11:35 1021 30.15 851 25.13 16.8 62.2 50 6.4 43.6
11:40 1021 30.15 851 25.13 16.6 62 50 6.2 43.2
11:45 1021 30.15 851 25.13 17.5 63.6 45 5.5 41.9
11:50 1021 30.15 851 25.13 17.9 64.2 46 6.1 43.1
11:55 1021 30.15 851 25.13 17.9 64.3 45 6.1 43
12:00 1021 30.15 851 25.13 16.9 62.3 48 5.8 42.5
12:05 1021 30.15 851 25.13 16.8 62.2 50 6.4 43.5
12:10 1021 30.15 851 25.13 17 62.7 46 5.4 41.8
12:15 1021 30.15 851 25.13 18.2 64.7 43 5.5 41.9
12:20 1021 30.15 851 25.13 18 64.4 44 5.7 42.2
12:25 1022 30.18 851 25.13 17.2 62.9 52 7.3 45.1
12:30 1022 30.18 851 25.13 15.4 59.7 55 6.6 43.9
12:35 1022 30.18 851 25.13 14.3 57.7 56 5.7 42.2
12:40 1022 30.18 851 25.13 14.1 57.3 52 4.6 40.2
12:45 1022 30.18 851 25.13 13.5 56.3 60 5.9 42.6
12:50 1022 30.18 851 25.13 12.1 53.8 68 6.5 43.7
12:55 1022 30.18 851 25.13 11.6 53 64 5.2 41.3
13:00 1022 30.18 851 25.13 12 53.6 74 7.6 45.7
13:05 1022 30.18 851 25.13 12.2 54 70 6.9 44.5
13:10 1022 30.18 851 25.13 11.3 52.4 72 6.6 43.8
13:15 1022 30.18 852 25.16 10.5 51 74 6.1 43
13:20 1022 30.18 852 25.16 10.1 50.2 76 6 42.8
13:25 1022 30.18 852 25.16 10 50.1 71 5.1 41.2
13:30 1022 30.18 852 25.16 10.4 50.7 69 4.9 40.9
13:35 1022 30.18 852 25.16 10.6 51.1 68 5.1 41.2
13:40 1022 30.18 852 25.16 10.7 51.3 68 5.1 41.1
13:45 1022 30.18 852 25.16 10.9 51.6 66 4.8 40.6
13:50 1022 30.18 852 25.16 11.1 52.1 69 5.8 42.5
13:55 1023 30.21 852 25.16 11.3 52.3 67 5.4 41.6
14:00 1023 30.21 852 25.16 11.4 52.5 67 5.5 41.9
14:05 1023 30.21 852 25.16 11.6 52.9 67 5.8 42.5
14:10 1023 30.21 852 25.16 12.1 53.8 68 6.4 43.5
14:15 1023 30.21 852 25.16 12.1 53.9 66 5.9 42.7
14:20 1023 30.21 852 25.16 12.2 53.9 64 5.7 42.2
14:25 1023 30.21 852 25.16 11.9 53.4 68 6.2 43.2
14:30 1023 30.21 852 25.16 12.3 54.1 68 6.5 43.7
14:35 1023 30.21 852 25.16 12.7 54.8 61 5.3 41.6
14:40 1023 30.21 852 25.16 13.1 55.6 65 6.8 44.2
14:45 1023 30.21 852 25.16 13.7 56.7 59 5.9 42.5
14:50 1023 30.21 852 25.16 14.1 57.4 57 5.7 42.3
14:55 1023 30.21 852 25.16 14.3 57.7 54 5.2 41.3
15:00 1023 30.21 852 25.16 14.2 57.5 54 4.9 40.9
15:05 1023 30.21 852 25.16 14 57.2 54 4.8 40.7
15:10 1023 30.21 852 25.16 14 57.2 54 4.9 40.9
15:15 1023 30.21 852 25.16 13.9 56.9 57 5.6 42.1
15:20 1023 30.21 852 25.16 13.6 56.4 58 5.6 42
15:25 1023 30.21 852 25.16 13.3 55.9 59 5.6 42.1
15:30 1023 30.21 853 25.19 13.1 55.5 62 5.9 42.6
15:35 1023 30.21 853 25.19 12.9 55.2 61 5.6 42.1
15:40 1023 30.21 852 25.16 12.7 54.8 66 6.5 43.7
15:45 1023 30.21 852 25.16 12.5 54.5 66 6.3 43.3
15:50 1023 30.21 853 25.19 12.5 54.5 64 5.9 42.7
15:55 1023 30.21 853 25.19 12.5 54.5 64 6 42.8
16:00 1024 30.24 853 25.19 12.7 54.8 63 5.8 42.5
16:05 1024 30.24 853 25.19 12.8 55 58 4.8 40.6
16:10 1023 30.21 853 25.19 13 55.3 62 5.8 42.4
16:15 1023 30.21 853 25.19 12.9 55.2 63 6.1 43
16:20 1023 30.21 853 25.19 13 55.4 62 6 42.9
16:25 1023 30.21 852 25.16 13.1 55.6 61 5.8 42.4
16:30 1023 30.21 852 25.16 13.3 55.9 62 6.2 43.2
16:35 1023 30.21 852 25.16 13.6 56.4 61 6.3 43.3
16:40 1023 30.21 853 25.19 13.8 56.9 59 5.9 42.7
16:45 1023 30.21 853 25.19 14 57.2 59 6.1 43
16:50 1023 30.21 853 25.19 14.2 57.5 58 6.1 42.9
16:55 1023 30.21 853 25.19 14.3 57.7 62 7.2 45
17:00 1023 30.21 853 25.19 14.2 57.6 65 7.9 46.2
17:05 1023 30.21 853 25.19 14.3 57.7 65 7.8 46.1
17:10 1023 30.21 853 25.19 14.3 57.7 67 8.2 46.8
17:15 1023 30.21 853 25.19 14.2 57.5 58 6.1 43
17:20 1023 30.21 853 25.19 14.4 57.8 61 7 44.5
17:25 1024 30.24 853 25.19 14.5 58.1 59 6.6 43.8
17:30 1024 30.24 853 25.19 14.7 58.4 58 6.6 43.9
17:35 1024 30.24 853 25.19 15 59 53 5.5 41.9
17:40 1024 30.24 853 25.19 15.1 59.1 49 4.6 40.2
17:45 1024 30.24 853 25.19 15.3 59.5 50 5.1 41.2
17:50 1024 30.24 853 25.19 15.3 59.6 46 4 39.2
17:55 1024 30.24 853 25.19 15.3 59.5 45 3.5 38.2
18:00 1024 30.24 853 25.19 15.6 60.1 46 4 39.3
18:05 1024 30.24 853 25.19 15.8 60.4 49 5.1 41.2
18:10 1024 30.24 853 25.19 15.9 60.6 49 5.2 41.4
18:15 1024 30.24 853 25.19 15.5 60 47 4.3 39.8
18:20 1024 30.24 853 25.19 15.6 60 46 4.1 39.4
18:25 1024 30.24 853 25.19 15.8 60.4 46 4.1 39.4
18:30 1024 30.24 853 25.19 15.8 60.4 47 4.5 40.2
18:35 1024 30.24 853 25.19 15.7 60.2 47 4.4 39.9
18:40 1024 30.24 853 25.19 15.7 60.2 47 4.6 40.2
18:45 1024 30.24 853 25.19 15.5 59.9 45 3.9 38.9
18:50 1024 30.24 853 25.19 15.4 59.7 45 3.5 38.4
18:55 1024 30.24 853 25.19 15.4 59.7 45 3.6 38.5
19:00 1024 30.24 853 25.19 15.3 59.6 48 4.3 39.8
19:05 1024 30.24 853 25.19 15.2 59.4 47 4.1 39.4
19:10 1024 30.24 853 25.19 15.2 59.4 46 3.6 38.5
19:15 1024 30.24 853 25.19 15.2 59.3 48 4.3 39.8
19:20 1024 30.24 853 25.19 15.1 59.2 49 4.6 40.2
19:25 1024 30.24 853 25.19 15 59.1 50 4.8 40.6
19:30 1024 30.24 853 25.19 15 59 49 4.5 40
19:35 1024 30.24 853 25.19 15 58.9 50 4.6 40.3
19:40 1024 30.24 853 25.19 14.8 58.7 51 5 40.9
19:45 1024 30.24 853 25.19 14.7 58.4 53 5.2 41.3
19:50 1024 30.24 853 25.19 14.6 58.2 52 4.9 40.8
19:55 1024 30.24 853 25.19 14.4 58 51 4.5 40
20:00 1024 30.24 853 25.19 14.5 58.1 50 4.4 39.9
20:05 1024 30.24 853 25.19 14.6 58.3 50 4.4 39.9
20:10 1024 30.24 853 25.19 14.6 58.2 53 5.3 41.6
20:15 1024 30.24 853 25.19 14.4 57.9 57 5.9 42.7
20:20 1024 30.24 853 25.19 14.1 57.4 54 5.1 41.2
20:25 1024 30.24 853 25.19 14.1 57.3 59 6.3 43.3
20:30 1024 30.24 853 25.19 13.9 56.9 62 6.7 44.1
20:35 1024 30.24 853 25.19 13.5 56.2 63 6.7 44
20:40 1024 30.24 853 25.19 12.8 55 69 7.2 44.9
20:45 1024 30.24 853 25.19 12.1 53.7 71 7 44.6
20:50 1024 30.24 853 25.19 12 53.6 70 6.7 44.1
20:55 1024 30.24 853 25.19 11.9 53.4 72 7 44.6
21:00 1024 30.24 854 25.22 11.7 53 72 6.8 44.3
21:05 1024 30.24 854 25.22 11.7 53 69 6.2 43.1
21:10 1024 30.24 854 25.22 11.8 53.3 69 6.4 43.6
21:15 1025 30.27 854 25.22 11.6 52.9 72 6.9 44.3
21:20 1025 30.27 854 25.22 11.1 52.1 71 6.2 43.1
21:25 1025 30.27 854 25.22 10.8 51.4 69 5.4 41.7
21:30 1025 30.27 854 25.22 10.7 51.2 70 5.5 41.9
21:35 1025 30.27 854 25.22 10.5 50.9 70 5.3 41.6
21:40 1025 30.27 854 25.22 10.3 50.5 71 5.4 41.7
21:45 1025 30.27 854 25.22 10.2 50.3 71 5.2 41.4
21:50 1025 30.27 854 25.22 10.1 50.1 72 5.3 41.5
21:55 1025 30.27 854 25.22 9.8 49.6 73 5.2 41.4
22:00 1025 30.27 854 25.22 9.6 49.3 73 5.1 41.2
22:05 1025 30.27 854 25.22 9.7 49.4 72 5 41
22:10 1025 30.27 854 25.22 9.8 49.7 72 5 40.9
22:15 1025 30.27 854 25.22 9.9 49.7 72 5 41
22:20 1025 30.27 854 25.22 9.8 49.6 72 5.1 41.1
22:25 1025 30.27 854 25.22 9.7 49.5 70 4.6 40.3
22:30 1025 30.27 854 25.22 10.1 50.1 69 4.7 40.4
22:35 1025 30.27 854 25.22 10.4 50.6 69 4.9 40.8
22:40 1025 30.27 854 25.22 10.2 50.4 71 5.2 41.3
22:45 1025 30.27 854 25.22 10.1 50.1 70 4.9 40.7
22:50 1025 30.27 854 25.22 10.1 50.2 70 4.8 40.7
22:55 1025 30.27 854 25.22 9.9 49.8 71 4.9 40.8
23:00 1025 30.27 854 25.22 9.6 49.4 72 5 40.9
23:05 1025 30.27 854 25.22 9.4 49 73 4.9 40.8
23:10 1025 30.27 854 25.22 9.2 48.6 73 4.8 40.6
23:15 1025 30.27 854 25.22 9.2 48.6 72 4.5 40.1
23:20 1025 30.27 854 25.22 9.3 48.7 73 4.6 40.4
23:25 1025 30.27 854 25.22 9.1 48.4 73 4.6 40.3
23:30 1025 30.27 854 25.22 9.2 48.6 72 4.3 39.8
23:35 1025 30.27 854 25.22 9.5 49.2 71 4.5 40.1
23:40 1025 30.27 854 25.22 9.7 49.5 69 4.4 39.9
23:45 1025 30.27 854 25.22 9.7 49.5 71 4.8 40.6
23:50 1025 30.27 854 25.22 9.3 48.7 75 5.1 41.1
23:55 1025 30.27 854 25.22 8.9 48.1 73 4.4 40
24:00 1025 30.27 854 25.22 9.1 48.4 73 4.5 40